User: anonymous   Login
Location: Oshawa
(43.9000°N, 78.8670°W)
Time: 01:29:15
(UTC-04:00)
Language:

Cosmos 1953 Rocket - Orbit

View from above orbital plane
View from above orbital plane
View from above satellite
View from above satellite

Ground track
Ground track

The orbit data is extracted from the following two-line orbital elements,

1 19211U 88050B   17083.94609381 +.00000107 +00000-0 +10140-4 0  9992
2 19211 082.5236 281.2046 0022821 038.3619 095.2103 14.82951544533228
Epoch (UTC): 24 March 2017 22:42:22
Eccentricity: 0.0022821
inclination: 82.5236°
perigee height: 604 km
apogee height: 636 km
right ascension of ascending node: 281.2046°
argument of perigee: 38.3619°
revolutions per day: 14.82951544
mean anomaly at epoch: 95.2103°
orbit number at epoch: 53322

The dashed part of the orbit path shows where the satellite is in the earth's shadow,  

DLR